Regional Weather Roundup
Issued by NWS

Home | Current Version | Previous Version | Text Only | Print | Product List | Glossary On
Versions: 1 2 3 4 5 6 7 8 9 10 11 12 13 14 15 16 17 18 19 20 21 22 23 24 25 26 27 28 29 30 31 32 33 34 35 36 37 38 39 40 41 42 43 44 45 46 47 48 49 50
000
ASUS43 KDTX 191810
RWRMI
MICHIGAN HOURLY REGIONAL WEATHER ROUNDUP
NATIONAL WEATHER SERVICE DETROIT/PONTIAC MI
200 PM EDT TUE AUG 19 2014

NOTE: "FAIR" INDICATES FEW OR NO CLOUDS BELOW 12,000 FEET WITH NO
SIGNIFICANT WEATHER AND/OR OBSTRUCTION TO VISIBILITY.

MIZ047>049-052>055-059>063-066>070-074>076-081>083-191900-
SOUTHEAST LOWER MICHIGAN

CITY           SKY/WX    TMP DP  RH WIND       PRES   REMARKS
ALMA           HVY RAIN  67  66  94 CALM      29.77S
6HR MIN TEMP:  64; 6HR MAX TEMP:  73;

ANN ARBOR      MOSUNNY   82  67  60 SW15G21   29.78S
BAD AXE        PTSUNNY   78  68  72 SW13G20   29.77R
6HR MIN TEMP:  65; 6HR MAX TEMP:  79;

DETROIT CITY   MOSUNNY   84  68  58 SW14      29.78F
6HR MIN TEMP:  70; 6HR MAX TEMP:  84; 6HR PCP: TRACE;

DETROIT        PTSUNNY   82  70  66 S12       29.79S
6HR MIN TEMP:  68; 6HR MAX TEMP:  82;

FLINT          MOSUNNY   73  64  73 S9        29.77S
6HR MIN TEMP:  69; 6HR MAX TEMP:  75; 6HR PCP:  0.07;

GROSSE ILE     MOSUNNY   77  70  78 SE9       29.78F
HILLSDALE      MOSUNNY   83  67  58 SW9G18    29.79F
6HR MIN TEMP:  65; 6HR MAX TEMP:  83;

HOWELL         PTSUNNY   79  68  67 S10       29.78S
6HR MIN TEMP:  65; 6HR MAX TEMP:  80;


CITY           SKY/WX    TMP DP  RH WIND       PRES   REMARKS
JACKSON        PTSUNNY   82  68  62 SW12G18   29.77F
6HR MIN TEMP:  67; 6HR MAX TEMP:  82; 6HR PCP:  0.10;

LAMBERTVILLE   MOSUNNY   82  68  61 SW9       29.79F
LANSING        CLOUDY    77  68  73 S8        29.76S
6HR MIN TEMP:  65; 6HR MAX TEMP:  79; 6HR PCP:  0.03;

LAPEER         NOT AVBL
MASON          PTSUNNY   79  68  67 S7        29.76S
MONROE         MOSUNNY   82  68  61 SW10G17   29.77F
MT. CLEMENS    PTSUNNY   80  68  66 SE15      29.78S
6HR MIN TEMP:  68; 6HR MAX TEMP:  80; 6HR PCP:  0.07;

PONTIAC        PTSUNNY   81  65  58 S12       29.78S
6HR MIN TEMP:  67; 6HR MAX TEMP:  81; 6HR PCP: TRACE;

PORT HOPE        N/A     73  66  78 SE7       29.74S
6HR MIN TEMP:  66; 6HR MAX TEMP:  76; 6HR PCP:  0.01;

PORT HURON     PTSUNNY   79  68  69 S13       29.79R
TRI CITIES     RAIN      70  67  90 SW5       29.78R
6HR MIN TEMP:  67; 6HR MAX TEMP:  76; 6HR PCP:  0.43;

YPSILANTI      MOSUNNY   87  68  52 S14       29.78F HX  90
6HR MIN TEMP:  70; 6HR MAX TEMP:  87; 6HR PCP: TRACE;

$$
MIZ043>046-050>051-056>058-064>065-071>073-077>080-191900-
SOUTHWEST LOWER MICHIGAN

CITY           SKY/WX    TMP DP  RH WIND       PRES   REMARKS
BATTLE CREEK   CLOUDY    82  68  62 S20G28    29.74F
6HR MIN TEMP:  67; 6HR MAX TEMP:  84; 6HR PCP:  0.03;

BENTON HARBOR  PTSUNNY   83  69  62 SW18G25   29.70F
6HR MIN TEMP:  67; 6HR MAX TEMP:  84; 6HR PCP: TRACE;

BIG RAPIDS     CLOUDY    68  67  97 S3        29.73S FOG
                                      6HR PCP:  0.09;

COLDWATER      PTSUNNY   82  69  63 SW13G18   29.77F
6HR MIN TEMP:  68; 6HR MAX TEMP:  83;

HOLLAND        LGT RAIN  73  70  90 SW13      29.71F
6HR MIN TEMP:  66; 6HR MAX TEMP:  80; 6HR PCP:  1.00;

GRAND RAPIDS   TSTM      71  71 100 S10       29.74S FOG
6HR MIN TEMP:  67; 6HR MAX TEMP:  79; 6HR PCP:  0.85;

KALAMAZOO      PTSUNNY   85  68  56 SW24G30   29.73F
6HR MIN TEMP:  67; 6HR MAX TEMP:  85; 6HR PCP:  0.07;

MARSHALL       PTSUNNY   82  69  63 S14G21    29.75F
MUSKEGON       CLOUDY    74  68  81 SW10      29.71S HAZE
6HR MIN TEMP:  66; 6HR MAX TEMP:  74; 6HR PCP:  0.07;

$$
MIZ016>042-191900-
NORTHERN LOWER MICHIGAN

CITY           SKY/WX    TMP DP  RH WIND       PRES   REMARKS
ALPENA         CLOUDY    71  66  84 S8        29.73S
6HR MIN TEMP:  63; 6HR MAX TEMP:  71;

BEAVER ISLAND  CLOUDY    67  65  93 SW10      29.68S
6HR MIN TEMP:  64; 6HR MAX TEMP:  67;

BELLAIRE       PTSUNNY   77  63  62 SW5       29.68S
6HR MIN TEMP:  67; 6HR MAX TEMP:  77;

CADILLAC       CLOUDY    70  65  86 S9        29.73R
CHARLEVOIX     CLOUDY    73  66  79 SW6       29.71S
6HR MIN TEMP:  65; 6HR MAX TEMP:  73;

FRANKFORT      CLOUDY    71  63  75 SW12G17   29.69S
GAYLORD        PTSUNNY   73  64  73 S8        29.72S
6HR MIN TEMP:  64; 6HR MAX TEMP:  73; 6HR PCP:  0.01;

GRAYLING       PTSUNNY   77  67  71 S8        29.73R
6HR MIN TEMP:  67; 6HR MAX TEMP:  77;

HARBOR SPRINGS CLOUDY    73  65  75 W3        29.69S
HOUGHTON LAKE  CLOUDY    73  65  75 S10       29.74S
6HR MIN TEMP:  65; 6HR MAX TEMP:  74; 6HR PCP:  0.01;

MANISTEE       CLOUDY    72  64  78 SW9       29.70S
OSCODA         CLOUDY    76  66  72 S12       29.73S
PELLSTON       CLOUDY    72  65  78 SW7       29.70S
6HR MIN TEMP:  62; 6HR MAX TEMP:  72; 6HR PCP:  0.02;

TRAVERSE CITY  CLOUDY    75  64  68 SW9       29.67S
6HR MIN TEMP:  67; 6HR MAX TEMP:  77; 6HR PCP: TRACE;

$$
MIZ007>008-015-191900-
EASTERN UPPER MICHIGAN

CITY           SKY/WX    TMP DP  RH WIND       PRES   REMARKS
KINROSS        CLOUDY    66  64  94 SE8       29.71S
6HR MIN TEMP:  57; 6HR MAX TEMP:  66;

MACKINAC ISLAN CLOUDY    68  66  94 CALM      29.69S
6HR MIN TEMP:  57; 6HR MAX TEMP:  68;

NEWBERRY       CLOUDY    63  62  99 S6        29.67F FOG
6HR MIN TEMP:  57; 6HR MAX TEMP:  63; 6HR PCP:  0.35;

S. S. MARIE    CLOUDY    63  61  93 E6        29.71S FOG
6HR MIN TEMP:  58; 6HR MAX TEMP:  63; 6HR PCP:  0.04;

$$
MIZ004>006-011>014-085-191900-
CENTRAL UPPER MICHIGAN

CITY           SKY/WX    TMP DP  RH WIND       PRES   REMARKS
MANISTIQUE     CLOUDY    65  64  97 CALM      29.66S
ESCANABA       CLOUDY    70  63  78 S8        29.66S
6HR MIN TEMP:  63; 6HR MAX TEMP:  70; 6HR PCP:  0.13;

MENOMINEE      CLOUDY    72  64  78 W6        29.66R
6HR MIN TEMP:  64; 6HR MAX TEMP:  72;

SAWYER-GWINN   PTSUNNY   72  63  73 S5        29.65F
$$
MIZ001>003-009>011-084-191900-
WESTERN UPPER MICHIGAN

CITY           SKY/WX    TMP DP  RH WIND       PRES   REMARKS
IRON MOUNTAIN  CLOUDY    74  61  63 SW6       29.65S
6HR MIN TEMP:  63; 6HR MAX TEMP:  74; 6HR PCP: TRACE;

HOUGHTON       CLOUDY    63  61  93 NW9       29.66S
6HR MIN TEMP:  61; 6HR MAX TEMP:  65; 6HR PCP:  0.25;

COPPER HARBOR    N/A     55  53  93 CALM      29.66R
6HR MIN TEMP:  53; 6HR MAX TEMP:  60; 6HR PCP:  0.36;

$$

ABBREVIATIONS USED IN REMARKS
   TC - TEMPERATURE IN CELSIUS
  WCI - WIND CHILL INDEX
   HX - HEAT INDEX
  VSB - VISIBILITY



USA.gov is the U.S. government's official web portal to all federal, state and local government web resources and services.